Total_Precipitation_Accumulation
1.03 1.11 1.17 1.20 1.31 1.49 1.65 1.69 1.70 1.72 1.68 1.61 1.52 1.43 1.37 1.31 1.30 1.31 1.32 1.41 1.48 1.47 1.47 1.47 1.41 1.37 1.44 1.48 1.50 1.55 1.63 1.75 1.69 1.23 1.01 0.96 0.98 0.93 0.92 0.87 0.81 0.79 0.76
1.00 1.05 1.11 1.13 1.12 1.21 1.34 1.47 1.57 1.66 1.60 1.57 1.52 1.43 1.34 1.28 1.24 1.22 1.19 1.22 1.27 1.31 1.32 1.36 1.33 1.28 1.29 1.33 1.37 1.35 1.34 1.37 1.45 1.29 0.99 0.88 0.85 0.80 0.79 0.79 0.76 0.71 0.65
0.92 0.95 0.97 0.99 0.99 1.03 1.10 1.22 1.31 1.43 1.46 1.44 1.45 1.40 1.29 1.23 1.19 1.16 1.13 1.13 1.14 1.14 1.17 1.25 1.28 1.30 1.30 1.28 1.27 1.25 1.23 1.24 1.32 1.33 1.05 0.85 0.79 0.76 0.77 0.75 0.73 0.72 0.66
0.82 0.90 0.92 0.90 0.91 0.96 1.05 1.09 1.15 1.21 1.29 1.30 1.32 1.36 1.36 1.30 1.25 1.20 1.17 1.13 1.14 1.12 1.11 1.18 1.23 1.22 1.18 1.14 1.16 1.13 1.16 1.21 1.24 1.29 1.19 1.00 0.85 0.76 0.81 0.82 0.81 0.74 0.72
0.74 0.84 0.90 0.92 0.97 1.07 1.10 1.07 1.06 1.07 1.13 1.19 1.21 1.26 1.29 1.29 1.27 1.25 1.22 1.20 1.21 1.22 1.18 1.15 1.17 1.22 1.18 1.12 1.11 1.10 1.13 1.20 1.28 1.35 1.26 1.08 0.93 0.83 0.78 0.74 0.81 0.80 0.79
0.60 0.69 0.78 0.86 0.96 1.08 1.14 1.11 1.06 1.02 1.06 1.14 1.14 1.20 1.27 1.29 1.45 1.43 1.31 1.26 1.26 1.22 1.16 1.07 1.05 1.12 1.13 1.15 1.14 1.12 1.18 1.28 1.39 1.43 1.34 1.15 0.91 0.82 0.83 0.95 1.07 1.18 1.11
0.51 0.56 0.67 0.83 0.91 0.98 1.07 1.11 1.09 1.07 1.15 1.24 1.25 1.26 1.34 1.45 1.54 1.37 1.30 1.18 1.17 1.13 1.07 1.01 0.96 0.94 1.01 0.94 1.00 1.06 1.09 1.20 1.29 1.31 1.26 1.02 0.89 0.84 1.03 1.20 1.22 1.25 1.09
0.55 0.60 0.68 0.78 0.88 0.99 1.07 1.13 1.16 1.16 1.24 1.31 1.34 1.35 1.38 1.41 1.45 1.35 1.27 1.10 1.05 1.00 0.95 0.90 0.90 0.87 0.89 0.97 1.04 1.09 1.01 0.94 0.94 0.92 0.92 0.87 0.88 0.94 1.16 1.41 1.50 1.53 1.30
0.55 0.60 0.64 0.72 0.83 0.96 1.08 1.17 1.21 1.24 1.28 1.32 1.28 1.24 1.20 1.22 1.24 1.15 1.14 1.04 1.03 0.98 0.91 0.89 0.90 0.87 0.97 1.13 1.18 1.18 1.02 0.87 0.86 0.92 0.99 0.98 1.02 1.07 1.16 1.43 1.68 1.82 1.59
0.53 0.58 0.61 0.68 0.78 0.89 1.00 1.11 1.17 1.20 1.20 1.18 1.16 1.08 1.03 1.03 1.12 1.04 1.04 1.02 1.02 0.96 0.91 0.89 0.97 0.96 1.07 1.19 1.13 1.13 1.05 0.87 0.81 0.82 0.84 0.86 0.81 0.83 1.01 1.17 1.60 2.07 1.81
0.53 0.58 0.62 0.67 0.73 0.83 0.89 0.93 0.97 0.98 0.98 0.95 0.92 0.90 0.87 0.89 0.95 0.93 0.95 0.96 0.98 0.99 0.98 0.91 0.90 1.08 1.18 1.23 1.14 0.96 0.97 1.04 0.95 0.85 0.82 0.81 0.80 0.80 0.84 0.90 1.17 1.87 2.22
0.54 0.58 0.64 0.67 0.66 0.67 0.71 0.76 0.75 0.75 0.77 0.77 0.77 0.77 0.79 0.82 0.85 0.88 0.93 0.98 1.03 0.97 0.93 0.86 0.89 1.10 1.11 1.08 1.02 1.03 1.12 1.07 0.90 0.91 0.90 0.87 0.84 0.84 0.86 0.91 0.97 1.16 1.52
0.54 0.55 0.57 0.59 0.59 0.60 0.61 0.64 0.67 0.67 0.67 0.70 0.71 0.72 0.73 0.73 0.77 0.87 0.88 0.96 1.02 0.95 0.91 0.96 1.01 1.03 0.98 0.93 0.97 1.01 1.00 0.95 0.99 1.06 1.01 0.91 0.86 0.91 0.96 1.02 1.03 1.05 1.14
0.48 0.47 0.47 0.47 0.50 0.52 0.53 0.58 0.63 0.66 0.63 0.63 0.65 0.65 0.65 0.66 0.64 0.69 0.78 0.85 0.92 0.91 0.94 0.97 0.94 0.91 0.88 0.90 0.96 0.94 0.87 0.92 1.10 1.16 1.06 0.96 0.95 1.02 1.06 1.12 1.26 1.29 1.37
0.43 0.40 0.39 0.40 0.44 0.48 0.50 0.54 0.59 0.63 0.68 0.68 0.64 0.63 0.65 0.65 0.66 0.79 0.85 0.82 0.88 0.93 0.94 0.84 0.80 0.80 0.82 0.80 0.79 0.81 0.84 0.91 1.01 1.04 1.09 1.09 1.07 1.15 1.23 1.31 1.48 1.56 1.60
0.43 0.42 0.41 0.38 0.42 0.48 0.51 0.54 0.61 0.64 0.70 0.74 0.73 0.69 0.65 0.69 0.74 0.80 0.83 0.88 0.93 0.97 0.90 0.80 0.75 0.74 0.75 0.76 0.75 0.77 0.80 0.87 0.98 1.11 1.18 1.21 1.27 1.33 1.41 1.45 1.59 1.71 1.64
0.43 0.44 0.43 0.42 0.45 0.49 0.50 0.51 0.54 0.56 0.61 0.66 0.69 0.70 0.69 0.69 0.71 0.74 0.81 0.85 0.81 0.82 0.74 0.71 0.71 0.71 0.71 0.72 0.77 0.82 0.85 0.86 1.02 1.23 1.35 1.40 1.48 1.53 1.58 1.62 1.63 1.62 1.47
0.43 0.45 0.42 0.42 0.45 0.47 0.50 0.51 0.50 0.48 0.49 0.52 0.56 0.63 0.66 0.67 0.67 0.70 0.78 0.77 0.70 0.69 0.66 0.66 0.65 0.67 0.72 0.76 0.82 0.90 0.96 0.99 1.10 1.25 1.36 1.43 1.53 1.67 1.71 1.64 1.54 1.48 1.39
0.40 0.41 0.41 0.41 0.43 0.45 0.46 0.50 0.50 0.47 0.45 0.43 0.43 0.50 0.60 0.65 0.67 0.70 0.70 0.65 0.63 0.62 0.61 0.62 0.63 0.67 0.74 0.80 0.87 0.95 1.06 1.17 1.25 1.41 1.46 1.49 1.57 1.75 1.73 1.53 1.39 1.29 1.24
0.40 0.43 0.41 0.39 0.41 0.43 0.44 0.46 0.48 0.45 0.44 0.41 0.40 0.41 0.50 0.61 0.61 0.60 0.61 0.61 0.63 0.64 0.62 0.64 0.64 0.69 0.76 0.83 0.89 1.01 1.13 1.20 1.29 1.39 1.45 1.48 1.56 1.67 1.63 1.38 1.20 1.16 1.08
0.39 0.41 0.43 0.40 0.40 0.42 0.45 0.46 0.48 0.48 0.46 0.42 0.41 0.46 0.61 0.64 0.59 0.56 0.59 0.62 0.64 0.67 0.70 0.72 0.71 0.74 0.79 0.86 0.95 1.02 1.15 1.22 1.31 1.43 1.46 1.43 1.42 1.38 1.21 1.15 1.10 1.08 1.09
0.36 0.37 0.37 0.39 0.39 0.42 0.45 0.47 0.47 0.47 0.46 0.44 0.41 0.46 0.58 0.54 0.49 0.49 0.53 0.54 0.55 0.59 0.66 0.76 0.78 0.77 0.90 1.10 1.28 1.37 1.30 1.24 1.27 1.41 1.44 1.32 1.22 1.13 1.07 1.10 1.08 1.09 1.10
0.34 0.35 0.36 0.37 0.39 0.43 0.45 0.42 0.43 0.45 0.45 0.44 0.43 0.42 0.45 0.46 0.45 0.46 0.46 0.46 0.47 0.50 0.54 0.64 0.73 0.72 0.77 1.01 1.30 1.66 1.78 1.56 1.45 1.53 1.59 1.41 1.21 1.13 1.15 1.16 1.09 1.09 1.05
0.33 0.36 0.37 0.38 0.39 0.40 0.41 0.41 0.42 0.43 0.44 0.44 0.42 0.41 0.41 0.43 0.43 0.43 0.43 0.43 0.45 0.46 0.49 0.58 0.66 0.69 0.75 0.96 1.18 1.36 1.52 1.66 1.84 1.83 1.74 1.70 1.43 1.22 1.18 1.16 1.05 0.99 0.99
0.34 0.37 0.38 0.39 0.39 0.40 0.41 0.41 0.41 0.42 0.42 0.43 0.42 0.41 0.41 0.42 0.42 0.42 0.42 0.43 0.45 0.45 0.43 0.50 0.62 0.71 0.79 0.94 1.12 1.26 1.36 1.51 1.64 1.67 1.60 1.52 1.33 1.16 1.13 1.12 1.02 0.96 0.95
0.34 0.36 0.39 0.40 0.40 0.40 0.41 0.42 0.43 0.43 0.44 0.44 0.44 0.44 0.44 0.44 0.43 0.43 0.43 0.45 0.47 0.45 0.43 0.45 0.52 0.65 0.78 0.91 0.99 1.15 1.29 1.26 1.11 1.06 1.24 1.36 1.25 1.07 1.06 1.13 1.04 1.00 0.97